Orbital Elements at Epoch 2446240.5 (1985-Jun-24.0) TDB
Reference: JPL 7 (heliocentric ecliptic J2000)
Element | Value | Uncertainty (1-sigma) | Units |
e | 0.517209914571475 | 1.3771e-06 | |
a | 3.33797581090783 | 3.827e-07 | au |
q | 1.61154162690654 | 4.7505e-06 | au |
i | 22.659458665718 | 0.0001033 | deg |
node | 230.84200613 | 0.00018519 | deg |
peri | .3762291200373954 | 0.00046566 | deg |
M | 358.1852118196531 | 0.00014627 | deg |
tp | 2446251.729143864733 (1985-Jul-05.22914386) | 0.00090503 | TDB |
period | 2227.528168345855 6.10 | 0.00038308 1.049e-06 | d yr |
n | .1616141178889482 | 2.7793e-08 | deg/d |
Q | 5.064409994909118 | 5.8063e-07 | au |
|
| | Orbit Determination Parameters
Additional Information
|